Location: Laura�t
(43.9341°N, 0.2497°E)
Time: 23:48:40
(UTC+00:00)

Okean 3 - Pass Details

Date: 03 March 2021
Orbit: 577 x 600 km, 82.5° (Epoch: 17 April)

Event Time Altitude Azimuth Distance (km) Brightness Sun altitude
Rises 20:13:46 0° 347° (NNW) 2,832 7.3 -26.4°
Reaches altitude 10° 20:16:00 10° 344° (NNW) 1,930 6.5 -26.8°
Enters shadow 20:19:35 52° 302° (WNW) 744 4.2 -27.4°
